�������l�o���
Date,Time,MP-1(��Sv/h),MP-2(��Sv/h),MP-3(��Sv/h),MP-4(��Sv/h),MP-5(��Sv/h),MP-6(��Sv/h),MP-7(��Sv/h),MP-8(��Sv/h),����,����(m/s),���J
2021/01/05,00:00,0.665,0.953,0.605,1.198,0.844,0.376,0.671,0.632,�k�k��,2.8,��
2021/01/05,00:10,0.666,0.949,0.605,1.197,0.843,0.377,0.670,0.632,�k�k��,3.7,��
2021/01/05,00:20,0.664,0.948,0.606,1.196,0.844,0.376,0.669,0.632,�k�k��,3.3,�L
2021/01/05,00:30,0.664,0.949,0.603,1.199,0.844,0.376,0.669,0.632,�k�k��,3.7,��
2021/01/05,00:40,0.665,0.948,0.605,1.198,0.846,0.378,0.671,0.631,�k�k��,3.6,��
2021/01/05,00:50,0.665,0.951,0.607,1.197,0.846,0.377,0.671,0.633,�k�k��,4.8,��
2021/01/05,01:00,0.665,0.950,0.607,1.198,0.843,0.376,0.671,0.632,�k�k��,5.6,��
2021/01/05,01:10,0.666,0.950,0.606,1.199,0.845,0.376,0.671,0.633,�k�k��,6.3,��
2021/01/05,01:20,0.666,0.950,0.608,1.200,0.844,0.376,0.671,0.631,�k�k��,7.1,��
2021/01/05,01:30,0.664,0.949,0.606,1.198,0.844,0.378,0.671,0.633,�k�k��,6.5,��
2021/01/05,01:40,0.665,0.951,0.607,1.200,0.844,0.377,0.672,0.631,�k,6.4,��
2021/01/05,01:50,0.664,0.952,0.608,1.197,0.845,0.376,0.672,0.632,�k�k��,6.6,��
2021/01/05,02:00,0.666,0.950,0.605,1.198,0.844,0.376,0.670,0.632,�k�k��,6.9,�L
2021/01/05,02:10,0.665,0.948,0.605,1.200,0.842,0.376,0.669,0.633,�k�k��,5.6,�L
2021/01/05,02:20,0.665,0.948,0.606,1.198,0.843,0.377,0.671,0.631,�k,6.5,�L
2021/01/05,02:30,0.665,0.950,0.607,1.198,0.843,0.377,0.670,0.631,�k�k��,6.6,�L
2021/01/05,02:40,0.665,0.949,0.606,1.197,0.840,0.376,0.670,0.631,�k�k��,7.4,�L
2021/01/05,02:50,0.664,0.949,0.605,1.195,0.841,0.377,0.670,0.631,�k�k��,6.5,�L
2021/01/05,03:00,0.661,0.948,0.604,1.196,0.840,0.376,0.668,0.631,�k�k��,6.2,�L
2021/01/05,03:10,0.660,0.947,0.603,1.195,0.841,0.375,0.669,0.631,�k�k��,6.1,�L
2021/01/05,03:20,0.663,0.945,0.604,1.197,0.841,0.376,0.669,0.631,�k�k��,5.8,�L
2021/01/05,03:30,0.664,0.949,0.606,1.198,0.840,0.376,0.669,0.630,�k�k��,5.7,�L
2021/01/05,03:40,0.663,0.948,0.603,1.196,0.841,0.375,0.670,0.631,�k�k��,6.7,��
2021/01/05,03:50,0.664,0.949,0.604,1.196,0.840,0.375,0.671,0.632,�k�k��,5.8,�L
2021/01/05,04:00,0.661,0.947,0.602,1.195,0.841,0.376,0.670,0.631,�k�k��,6.6,�L
2021/01/05,04:10,0.662,0.947,0.605,1.195,0.840,0.376,0.671,0.631,�k�k��,6.3,�L
2021/01/05,04:20,0.662,0.947,0.604,1.195,0.840,0.375,0.669,0.632,�k�k��,6.2,��
2021/01/05,04:30,0.662,0.947,0.603,1.195,0.840,0.375,0.670,0.632,�k�k��,6.7,��
2021/01/05,04:40,0.662,0.947,0.604,1.196,0.839,0.376,0.671,0.631,�k�k��,6.8,��
2021/01/05,04:50,0.660,0.944,0.604,1.195,0.840,0.375,0.670,0.632,�k�k��,7.1,��
2021/01/05,05:00,0.661,0.945,0.603,1.195,0.840,0.378,0.668,0.630,�k�k��,6.6,��
2021/01/05,05:10,0.662,0.946,0.604,1.194,0.840,0.375,0.670,0.630,�k�k��,4.9,��
2021/01/05,05:20,0.662,0.945,0.603,1.195,0.841,0.376,0.670,0.631,�k�k��,6.0,��
2021/01/05,05:30,0.661,0.947,0.604,1.194,0.841,0.375,0.670,0.632,�k�k��,6.2,��
2021/01/05,05:40,0.661,0.947,0.602,1.197,0.838,0.375,0.670,0.632,�k�k��,6.7,��
2021/01/05,05:50,0.661,0.946,0.604,1.195,0.842,0.376,0.669,0.632,�k�k��,6.4,��
2021/01/05,06:00,0.661,0.948,0.602,1.194,0.840,0.377,0.669,0.632,�k�k��,6.6,��
2021/01/05,06:10,0.659,0.946,0.603,1.195,0.840,0.374,0.669,0.632,�k�k��,6.7,��
2021/01/05,06:20,0.662,0.948,0.603,1.193,0.843,0.375,0.671,0.631,�k�k��,6.7,��
2021/01/05,06:30,0.662,0.947,0.603,1.197,0.840,0.375,0.668,0.630,�k�k��,7.8,��
2021/01/05,06:40,0.660,0.947,0.602,1.194,0.839,0.375,0.670,0.630,�k�k��,6.9,��
2021/01/05,06:50,0.661,0.946,0.604,1.196,0.840,0.375,0.669,0.630,�k�k��,7.8,��
2021/01/05,07:00,0.661,0.946,0.602,1.195,0.841,0.374,0.670,0.631,�k�k��,7.5,��
2021/01/05,07:10,0.661,0.946,0.605,1.196,0.841,0.377,0.669,0.631,�k��,7.0,��
2021/01/05,07:20,0.661,0.948,0.602,1.194,0.841,0.376,0.670,0.631,�k�k��,6.6,��
2021/01/05,07:30,0.662,0.946,0.604,1.194,0.841,0.375,0.670,0.631,�k�k��,6.7,��
2021/01/05,07:40,0.662,0.948,0.604,1.195,0.838,0.377,0.670,0.631,�k�k��,5.9,��
2021/01/05,07:50,0.662,0.946,0.604,1.195,0.841,0.376,0.671,0.631,�k�k��,6.7,��
2021/01/05,08:00,0.661,0.946,0.603,1.194,0.840,0.375,0.670,0.630,�k�k��,5.5,��
2021/01/05,08:10,0.662,0.948,0.602,1.196,0.841,0.375,0.669,0.632,�k�k��,6.2,��
2021/01/05,08:20,0.662,0.946,0.602,1.197,0.842,0.376,0.670,0.632,�k�k��,7.1,��
2021/01/05,08:30,0.662,0.948,0.604,1.196,0.842,0.375,0.670,0.632,�k�k��,7.1,��
2021/01/05,08:40,0.662,0.948,0.603,1.196,0.842,0.376,0.670,0.629,�k�k��,6.0,��
2021/01/05,08:50,0.661,0.950,0.604,1.196,0.839,0.375,0.669,0.632,�k�k��,5.5,��
2021/01/05,09:00,0.662,0.948,0.604,1.196,0.839,0.375,0.670,0.631,�k�k��,5.8,��
2021/01/05,09:10,0.662,0.949,0.604,1.196,0.841,0.377,0.670,0.632,�k�k��,4.5,��
2021/01/05,09:20,0.663,0.946,0.604,1.196,0.840,0.377,0.670,0.631,�k�k��,5.1,��
2021/01/05,09:30,0.661,0.947,0.604,1.197,0.842,0.376,0.670,0.632,�k��,4.5,��
2021/01/05,09:40,0.664,0.947,0.604,1.195,0.842,0.377,0.668,0.632,�k�k��,3.5,��
2021/01/05,09:50,0.664,0.946,0.602,1.194,0.840,0.375,0.671,0.631,�k�k��,4.7,��
2021/01/05,10:00,0.664,0.948,0.604,1.195,0.842,0.376,0.669,0.632,�k�k��,5.3,��
2021/01/05,10:10,0.664,0.947,0.603,1.196,0.842,0.376,0.670,0.632,�k��,4.4,��
2021/01/05,10:20,0.664,0.947,0.605,1.195,0.842,0.375,0.669,0.632,�k�k��,4.1,��
2021/01/05,10:30,0.663,0.947,0.604,1.195,0.843,0.377,0.669,0.632,�k�k��,4.0,��
2021/01/05,10:40,0.662,0.949,0.604,1.197,0.842,0.375,0.670,0.632,�k�k��,4.0,��
2021/01/05,10:50,0.663,0.947,0.605,1.198,0.842,0.376,0.668,0.633,�k��,3.5,��
2021/01/05,11:00,0.662,0.948,0.605,1.198,0.841,0.376,0.670,0.632,�k�k��,4.1,��
2021/01/05,11:10,0.663,0.949,0.605,1.198,0.841,0.377,0.672,0.632,�k�k��,4.6,��
2021/01/05,11:20,0.664,0.951,0.605,1.197,0.842,0.377,0.671,0.632,�k�k��,4.4,��
2021/01/05,11:30,0.665,0.952,0.608,1.196,0.842,0.378,0.671,0.632,�k�k��,4.4,��
2021/01/05,11:40,0.664,0.950,0.605,1.198,0.844,0.376,0.672,0.632,�k�k��,4.1,��
2021/01/05,11:50,0.665,0.948,0.606,1.198,0.844,0.377,0.673,0.631,�k�k��,5.1,��
2021/01/05,12:00,0.664,0.949,0.606,1.196,0.844,0.376,0.671,0.632,�k�k��,4.1,��
2021/01/05,12:10,0.664,0.950,0.606,1.198,0.843,0.378,0.673,0.632,�k�k��,3.3,��
2021/01/05,12:20,0.663,0.951,0.606,1.197,0.843,0.377,0.670,0.632,�k�k��,1.7,��
2021/01/05,12:30,0.665,0.951,0.607,1.198,0.844,0.377,0.672,0.632,���k��,2.2,��
2021/01/05,12:40,0.665,0.950,0.608,1.198,0.843,0.376,0.671,0.631,�k��,2.6,��
2021/01/05,12:50,0.665,0.949,0.608,1.198,0.845,0.376,0.673,0.632,�k��,2.0,��
2021/01/05,13:00,0.665,0.952,0.606,1.201,0.843,0.376,0.671,0.632,�k��,2.9,��
2021/01/05,13:10,0.666,0.950,0.607,1.197,0.842,0.376,0.671,0.632,���k��,2.5,��
2021/01/05,13:20,0.664,0.950,0.606,1.197,0.845,0.377,0.671,0.632,��,2.5,��
2021/01/05,13:30,0.666,0.950,0.606,1.198,0.846,0.378,0.671,0.633,���k��,1.9,��
2021/01/05,13:40,0.666,0.948,0.608,1.199,0.847,0.377,0.670,0.634,�k��,2.0,��
2021/01/05,13:50,0.666,0.945,0.607,1.198,0.843,0.377,0.672,0.632,�k�k��,2.0,��
2021/01/05,14:00,0.664,0.928,0.607,1.198,0.846,0.377,0.671,0.634,���k��,2.2,��
2021/01/05,14:10,0.667,0.940,0.606,1.200,0.844,0.377,0.671,0.632,�k��,1.7,��
2021/01/05,14:20,0.663,0.950,0.607,1.198,0.846,0.378,0.673,0.632,���k��,1.7,��
2021/01/05,14:30,0.664,0.951,0.606,1.197,0.844,0.377,0.672,0.634,��,1.5,��
2021/01/05,14:40,0.666,0.950,0.606,1.198,0.846,0.377,0.671,0.632,�k��,2.0,��
2021/01/05,14:50,0.666,0.951,0.609,1.199,0.847,0.378,0.671,0.634,���k��,1.2,��
2021/01/05,15:00,0.664,0.951,0.608,1.198,0.842,0.377,0.671,0.633,�k,1.7,��
2021/01/05,15:10,0.666,0.949,0.606,1.197,0.845,0.378,0.669,0.630,�k�k��,1.1,��
2021/01/05,15:20,0.665,0.950,0.606,1.197,0.845,0.376,0.672,0.631,�k,0.9,��
2021/01/05,15:30,0.664,0.951,0.606,1.201,0.844,0.378,0.673,0.632,�k�k��,1.2,��
2021/01/05,15:40,0.664,0.952,0.607,1.198,0.845,0.376,0.671,0.632,�k�k��,0.8,��
2021/01/05,15:50,0.664,0.950,0.608,1.198,0.843,0.378,0.671,0.632,�쓌,0.6,��
2021/01/05,16:00,0.665,0.950,0.607,1.199,0.847,0.377,0.671,0.633,��,0.6,��
2021/01/05,16:10,0.666,0.952,0.606,1.197,0.844,0.377,0.673,0.631,��쐼,1.1,��
2021/01/05,16:20,0.664,0.950,0.607,1.199,0.845,0.377,0.672,0.633,��쐼,1.5,��
2021/01/05,16:30,0.665,0.952,0.606,1.199,0.846,0.379,0.670,0.632,��쐼,1.7,��
2021/01/05,16:40,0.667,0.949,0.605,1.199,0.846,0.378,0.672,0.633,��,3.1,��
2021/01/05,16:50,0.666,0.950,0.607,1.196,0.846,0.376,0.670,0.633,-,CALM,��
2021/01/05,17:00,0.665,0.952,0.606,1.198,0.845,0.377,0.669,0.632,��쓌,1.9,��
2021/01/05,17:10,0.665,0.952,0.606,1.198,0.843,0.378,0.670,0.632,��,2.2,��
2021/01/05,17:20,0.663,0.950,0.606,1.196,0.845,0.378,0.670,0.632,��쓌,2.6,��
2021/01/05,17:30,0.665,0.951,0.606,1.195,0.844,0.378,0.671,0.632,�쓌,3.1,��
2021/01/05,17:40,0.663,0.949,0.605,1.196,0.845,0.377,0.671,0.631,�쓌,3.0,��
2021/01/05,17:50,0.666,0.951,0.606,1.199,0.846,0.377,0.669,0.632,��,1.7,��
2021/01/05,18:00,0.664,0.947,0.607,1.198,0.842,0.378,0.671,0.634,��쓌,2.0,��
2021/01/05,18:10,0.663,0.948,0.605,1.200,0.843,0.377,0.670,0.631,��쓌,1.7,��
2021/01/05,18:20,0.664,0.949,0.607,1.198,0.845,0.377,0.669,0.632,��쓌,1.7,��
2021/01/05,18:30,0.662,0.951,0.606,1.198,0.845,0.377,0.670,0.633,��,2.0,��
2021/01/05,18:40,0.664,0.950,0.605,1.197,0.845,0.377,0.670,0.631,��,1.7,��
2021/01/05,18:50,0.665,0.949,0.605,1.196,0.845,0.377,0.671,0.632,��쓌,1.9,��
2021/01/05,19:00,0.666,0.949,0.606,1.199,0.846,0.377,0.670,0.633,��,2.0,��
2021/01/05,19:10,0.664,0.952,0.608,1.197,0.845,0.379,0.670,0.632,��,3.4,��
2021/01/05,19:20,0.665,0.950,0.606,1.198,0.845,0.376,0.673,0.632,��쓌,2.0,��
2021/01/05,19:30,0.664,0.950,0.606,1.198,0.844,0.377,0.672,0.633,��,0.8,��
2021/01/05,19:40,0.664,0.951,0.609,1.197,0.844,0.377,0.669,0.633,���쐼,1.1,��
2021/01/05,19:50,0.665,0.951,0.606,1.198,0.844,0.379,0.671,0.632,�k��,0.6,��
2021/01/05,20:00,0.666,0.951,0.608,1.199,0.845,0.379,0.672,0.634,�k��,4.1,��
2021/01/05,20:10,0.665,0.950,0.607,1.199,0.846,0.377,0.670,0.632,�k�k��,5.0,��
2021/01/05,20:20,0.664,0.951,0.606,1.199,0.843,0.379,0.672,0.633,�k�k��,5.1,��
2021/01/05,20:30,0.665,0.953,0.608,1.198,0.845,0.377,0.670,0.632,�k�k��,3.8,��
2021/01/05,20:40,0.665,0.952,0.607,1.198,0.844,0.377,0.671,0.632,�k�k��,4.4,��
2021/01/05,20:50,0.667,0.950,0.607,1.194,0.848,0.377,0.670,0.632,�k�k��,5.1,��
2021/01/05,21:00,0.665,0.948,0.606,1.200,0.848,0.379,0.671,0.632,�k�k��,4.6,��
2021/01/05,21:10,0.666,0.951,0.608,1.197,0.846,0.377,0.671,0.631,�k�k��,5.5,��
2021/01/05,21:20,0.667,0.950,0.608,1.201,0.846,0.378,0.671,0.632,�k�k��,5.5,��
2021/01/05,21:30,0.665,0.952,0.605,1.200,0.846,0.378,0.671,0.633,�k�k��,6.0,��
2021/01/05,21:40,0.667,0.949,0.609,1.201,0.844,0.379,0.673,0.633,�k�k��,5.6,��
2021/01/05,21:50,0.664,0.951,0.607,1.198,0.844,0.377,0.670,0.632,�k�k��,8.6,�L
2021/01/05,22:00,0.666,0.951,0.606,1.199,0.844,0.377,0.673,0.632,�k�k��,7.9,�L
2021/01/05,22:10,0.667,0.951,0.608,1.200,0.845,0.379,0.672,0.632,�k�k��,7.4,�L
2021/01/05,22:20,0.667,0.948,0.608,1.197,0.844,0.379,0.671,0.632,�k�k��,8.1,��
2021/01/05,22:30,0.667,0.951,0.608,1.197,0.845,0.378,0.671,0.633,�k�k��,7.5,��
2021/01/05,22:40,0.666,0.949,0.607,1.199,0.844,0.378,0.671,0.632,�k�k��,7.2,�L
2021/01/05,22:50,0.666,0.950,0.605,1.201,0.845,0.377,0.671,0.633,�k�k��,8.0,��
2021/01/05,23:00,0.666,0.951,0.608,1.197,0.844,0.377,0.671,0.632,�k�k��,8.2,��
2021/01/05,23:10,0.665,0.948,0.605,1.198,0.845,0.376,0.670,0.632,�k�k��,8.7,��
2021/01/05,23:20,0.665,0.950,0.605,1.199,0.845,0.375,0.671,0.632,�k�k��,8.4,��
2021/01/05,23:30,0.666,0.949,0.606,1.199,0.845,0.375,0.671,0.633,�k�k��,9.4,��
2021/01/05,23:40,0.665,0.948,0.604,1.196,0.844,0.375,0.671,0.632,�k�k��,9.4,��
2021/01/05,23:50,0.665,0.950,0.605,1.198,0.844,0.375,0.671,0.633,�k�k��,9.9,��
